This is the latest recevied weather packets stored in our database for station/object AC5CM. If no packets are shown the sender has not sent any weather packets the latest 10 day(s).
| Time | Temp. | Humidity | Pressure | Rain* | Wind** | Luminosity | Snow |
|---|---|---|---|---|---|---|---|
| 1777748121 | 23.89° C | 45% | 1020.8 hPa | 0 mm | - | - | - |
| 1777746907 | 23.89° C | 47% | 1020.8 hPa | 0 mm | - | - | - |
| 1777746602 | 24.44° C | 46% | 1020.8 hPa | 0 mm | - | - | - |
| 1777746297 | 23.89° C | 48% | 1020.9 hPa | 0 mm | - | - | - |
| 1777745994 | 23.89° C | 48% | 1021.1 hPa | 0 mm | - | - | - |
| 1777745692 | 23.89° C | 48% | 1021.3 hPa | 0 mm | - | - | - |
| 1777745391 | 23.33° C | 46% | 1021.3 hPa | 0 mm | - | - | - |
| 1777745088 | 23.33° C | 49% | 1021.3 hPa | 0 mm | - | - | - |
| 1777744784 | 23.33° C | 45% | 1021.2 hPa | 0 mm | - | - | - |
| 1777744181 | 23.33° C | 47% | 1021.2 hPa | 0 mm | - | - | - |
| 1777743878 | 22.78° C | 45% | 1021.3 hPa | 0 mm | - | - | - |
| 1777743271 | 22.78° C | 46% | 1021.5 hPa | 0 mm | - | - | - |
| 1777742970 | 22.78° C | 47% | 1021.6 hPa | 0 mm | - | - | - |
| 1777742666 | 22.78° C | 48% | 1021.3 hPa | 0 mm | - | - | - |
| 1777742362 | 22.78° C | 49% | 1021.7 hPa | 0 mm | - | - | - |
| 1777742058 | 22.22° C | 45% | 1021.6 hPa | 0 mm | - | - | - |
| 1777741148 | 22.22° C | 49% | 1021.5 hPa | 0 mm | - | - | - |
| 1777740543 | 22.22° C | 51% | 1021.4 hPa | 0 mm | - | - | - |
| 1777739935 | 21.67° C | 54% | 1021.4 hPa | 0 mm | - | - | - |
| 1777739330 | 21.67° C | 56% | 1021.4 hPa | 0 mm | - | - | - |
| 1777739026 | 21.11° C | 56% | 1021.4 hPa | 0 mm | - | - | - |
| 1777738723 | 21.67° C | 55% | 1021.3 hPa | 0 mm | - | - | - |
| 1777738117 | 20.56° C | 60% | 1021.6 hPa | 0 mm | - | - | - |
| 1777737816 | 20.56° C | 60% | 1021.5 hPa | 0 mm | - | - | - |
| 1777737514 | 20° C | 60% | 1021.3 hPa | 0 mm | - | - | - |
* Rain latest hour (hover to see other rain measurements)
** Current wind speed in m/s (hover to see current wind gust speed)